SCOUT X-4 DEB, 2011

Orbit data source: Space-Track

SCOUT X-4 DEB, 2011 is space debris in LEO originally from a launch on Thu, 29 Apr 1965 UTC launched from the Wallops Island (WLPIS). Debris objects in space refer to the collection of defunct objects orbiting the Earth. Examples of debris include non-operational satellites, rocket bodies, and fragments generated from explosions, collisions, or faulty payload assembly.

Loading next visibility...
Identifier
2011, 1965-032D
Orbit
LEO
Last TLE update
5 days ago
Origin
Manufacturer
Unknown
Mission
Spacecraft
Bus & Motor
Unknown
Mass
Unknown
Launch date (UTC)
1965-04-29 (60 years ago)
Launch vehicle
Unknown
Launch site
Wallops Island (WLPIS)
Object type
Payload
Rocket body
Debris
Shape & HBR
Unknown
Radar Cross Section
Small (<0.1 m²)

Expand to show TLE details & history

TLE from 5 days ago
0 SCOUT X-4 DEB
1 02011U 65032D   25177.43547968  .00000204  00000-0  43641-3 0  9995
2 02011  41.1991 208.0145 0235940 236.5884 263.7371 13.40424405929578
Epoch: 2025-06-26T10:27Z
TLE epoch observation values (Epoch: 2025-06-26T10:27:05.444Z)
Latitude
26.43476°
Longitude
-77.96485°
Altitude
1,130.997 km
Speed
7.28 km/s
True Right ascension
23h 34m 26s
True Declination
26° 18' 17"
Sunlit
Object was in daylight at epoch
Visualization orbit readout
Latitude
-37.4608°
Longitude
53.06572°
Altitude
962.815 km
Speed
7.447 km/s
Apparent Right ascension
12h 06m 15s
Apparent Declination
-67° 37' 07"
Sunlit
Object is in daylight
Visualization observer readout
Local Sidereal Time
05:51:09
Azimuth
151.27° SSE
Elevation
-37.775°
Doppler factor
1
Orbital elements
Apogee altitude
1,286.429 km
Perigee altitude
933.091 km
Semi-major axis
7,487.897 km
Eccentricity
0.02359
Inclination
41.1991°
RAAN
208.0145°
Arg. of periapsis
236.5884°
True anomaly
Unknown
Mean anomaly
263.7371°
Eccentric anomaly
Unknown
Mean motion
3.34968 °/min
Orbital period
107.47 mins
BSTAR
0.00043641
Loading maneuver chart data...
Loading SW <> Apogee altitude chart data...
Loading historical data...
Loading historical data...
Loading historical data...
Loading historical data...
Loading historical data...
Loading historical data...
Loading historical data...
Other satellites on launch #32 in the year 1965 (1965-04-29 UTC)

SCOUT X-4 DEB Visibility forecast

Observer location: undefined°, undefined°

Span
Click to sort rows by Start time (UTC) header in descending order
Start Az.
Max El. time (UTC)
Max El. Az.
Max El.
End time (UTC)
End Az.
9 mins2025-07-02 01:48:25.883Z173.571° S2025-07-02 01:52:25.883Z139.731° SSE18.495°2025-07-02 01:57:25.883Z97.755° ESE
14 mins2025-07-02 03:39:25.883Z224.398° SW2025-07-02 03:45:25.883Z157.742° S39.841°2025-07-02 03:53:25.883Z76.889° E
15 mins2025-07-02 05:32:25.883Z261.469° W2025-07-02 05:39:25.883Z348.752° N44.941°2025-07-02 05:47:25.883Z81.015° E
14 mins2025-07-02 07:27:25.883Z280.751° WNW2025-07-02 07:33:25.883Z298.292° NW44.921°2025-07-02 07:41:25.883Z101.962° ESE
13 mins2025-07-02 09:21:25.883Z277.958° WNW2025-07-02 09:27:25.883Z208.16° SW38.02°2025-07-02 09:34:25.883Z137.891° SSE
6 mins2025-07-02 11:17:25.883Z247.933° W2025-07-02 11:20:25.883Z222.036° SW15.753°2025-07-02 11:23:25.883Z196.889° SSW
|